Location: ??????????
(44.2167°N, 135.5333°E)
Time: 14:31:03
(UTC+00:00)

Cosmos 1818 - Pass Details

Date: 15 June 2025
Orbit: 776 x 795 km, 65.0° (Epoch: 16 July)

Event Time Altitude Azimuth Distance (km) Brightness Sun altitude
Rises 12:01:19 0° 213° (SSW) 3,271 6.6 -11.2°
Reaches altitude 10° 12:03:43 10° 213° (SSW) 2,348 5.9 -11.5°
Maximum altitude 12:09:08 89° 298° (WNW) 799 3.6 -12.1°
Drops below altitude 10° 12:14:37 10° 34° (NE) 2,371 6.3 -12.8°
Sets 12:17:03 0° 35° (NE) 3,305 7.0 -13.0°
